Weather History for Wise, VA

Change the Weather History Date:

Tuesday, November 8, 2011

  Actual Average Record
Temperature  
Mean Temperature 56 °F -  
Max Temperature 68 °F 53 °F 71 °F (2005)
Min Temperature 44 °F 36 °F 26 °F (2007)
Degree Days  
Heating Degree Days 9    
Growing Degree Days 6 (Base 50)    
Moisture  
Dew Point 38 °F    
Average Humidity 52    
Maximum Humidity 81    
Minimum Humidity 30    
Precipitation  
Precipitation 0.00 in - - ()
Sea Level Pressure  
Sea Level Pressure 30.25 in    
Wind  
Wind Speed 3 mph (SSW)    
Max Wind Speed 8 mph    
Max Gust Speed -    
Visibility 9 miles    
Events      
Averages and records for this station are not official NWS values.
T = Trace of Precipitation, MM = Missing Value Source: NWS Daily Summary

Daily Weather History Graph

Daily Weather History Graph

Search for Another Location

Airport:

Trip Planner

Search our weather history database for the weather conditions in past years. The results will help you decide how hot, cold, wet, or windy it might be!

Date:

Astronomy

Nov. 08, 2011 Rise Set
Actual Time 7:01 AM EST 5:26 PM EST
Civil Twilight 6:33 AM EST 5:53 PM EST
Nautical Twilight 6:02 AM EST 6:24 PM EST
Astronomical Twilight 5:32 AM EST 6:54 PM EST
Moon 4:04 PM EST (11/8) 5:00 AM EST (11/8)
Length of Visible Light 11h 19m
Length of Day
10h 25m
Waxing Gibbous, 96% of the Moon is Illuminated
Nov 8
Waxing Gibbous
Nov 10
Full
Nov 18
Last Quarter
Nov 25
New
Dec 2
First Quarter

Hourly Weather History & Observations

Time (EST) Temp. Windchill Dew Point Humidity Pressure Visibility Wind Dir Wind Speed Gust Speed Precip Events Conditions
12:15 AM 51.8 °F - 39.2 °F 62% 30.30 in 10.0 mi Calm Calm - N/A   Unknown
12:35 AM 53.6 °F - 39.2 °F 58% 30.30 in 10.0 mi South 3.5 mph - N/A   Unknown
12:55 AM 53.6 °F - 39.2 °F 58% 30.30 in 10.0 mi Calm Calm - N/A   Unknown
1:15 AM 51.8 °F - 39.2 °F 62% 30.29 in 10.0 mi SSE 4.6 mph - N/A   Unknown
1:35 AM 53.6 °F - 39.2 °F 58% 30.29 in 10.0 mi SSE 5.8 mph - N/A   Unknown
1:55 AM 55.4 °F - 39.2 °F 54% 30.28 in 10.0 mi SSE 5.8 mph - N/A   Unknown
2:15 AM 53.6 °F - 39.2 °F 58% 30.28 in 10.0 mi Calm Calm - N/A   Unknown
2:35 AM 53.6 °F - 39.2 °F 58% 30.28 in 10.0 mi Calm Calm - N/A   Unknown
2:55 AM 51.8 °F - 39.2 °F 62% 30.27 in 10.0 mi ESE 3.5 mph - N/A   Unknown
3:15 AM 51.8 °F - 39.2 °F 62% 30.27 in 10.0 mi SSE 3.5 mph - N/A   Unknown
3:55 AM 53.6 °F - 39.2 °F 58% 30.28 in 10.0 mi SSE 6.9 mph - N/A   Unknown
4:15 AM 44.6 °F - 37.4 °F 76% 30.29 in 10.0 mi Calm Calm - N/A   Unknown
4:35 AM 46.4 °F 45.2 °F 39.2 °F 76% 30.29 in 10.0 mi SW 3.5 mph - N/A   Unknown
4:55 AM 44.6 °F 42.2 °F 39.2 °F 81% 30.30 in 10.0 mi SSW 4.6 mph - N/A   Unknown
5:15 AM 44.6 °F 43.1 °F 39.2 °F 81% 30.29 in 10.0 mi SSW 3.5 mph - N/A   Unknown
5:35 AM 44.6 °F 43.1 °F 39.2 °F 81% 30.29 in 10.0 mi South 3.5 mph - N/A   Unknown
5:55 AM 44.6 °F 42.2 °F 39.2 °F 81% 30.29 in 10.0 mi South 4.6 mph - N/A   Unknown
6:15 AM 44.6 °F 43.1 °F 37.4 °F 76% 30.29 in 10.0 mi South 3.5 mph - N/A   Unknown
6:35 AM 44.6 °F 43.1 °F 39.2 °F 81% 30.29 in 10.0 mi South 3.5 mph - N/A   Unknown
7:15 AM 48.2 °F - 39.2 °F 71% 30.29 in 10.0 mi South 3.5 mph - N/A   Unknown
7:35 AM 48.2 °F - 39.2 °F 71% 30.30 in 10.0 mi Calm Calm - N/A   Unknown
7:55 AM 50.0 °F - 39.2 °F 66% 30.30 in 10.0 mi South 3.5 mph - N/A   Unknown
8:15 AM 53.6 °F - 39.2 °F 58% 30.31 in 10.0 mi South 4.6 mph - N/A   Unknown
8:35 AM 53.6 °F - 41.0 °F 62% 30.31 in 10.0 mi SSW 3.5 mph - N/A   Unknown
8:55 AM 55.4 °F - 41.0 °F 58% 30.30 in 10.0 mi South 4.6 mph - N/A   Unknown
9:15 AM 57.2 °F - 39.2 °F 51% 30.30 in 10.0 mi South 5.8 mph - N/A   Unknown
9:35 AM 57.2 °F - 39.2 °F 51% 30.30 in 10.0 mi South 4.6 mph - N/A   Unknown
9:55 AM 59.0 °F - 39.2 °F 48% 30.29 in 10.0 mi SSW 4.6 mph - N/A   Unknown
10:15 AM 60.8 °F - 39.2 °F 45% 30.29 in 10.0 mi SW 4.6 mph - N/A   Unknown
10:35 AM 62.6 °F - 37.4 °F 39% 30.29 in 10.0 mi SW 5.8 mph - N/A   Unknown
10:55 AM 62.6 °F - 37.4 °F 39% 30.29 in 10.0 mi South 4.6 mph - N/A   Unknown
11:15 AM 62.6 °F - 39.2 °F 42% 30.28 in 10.0 mi West 3.5 mph - N/A   Unknown
11:35 AM 64.4 °F - 37.4 °F 37% 30.27 in 10.0 mi Calm Calm - N/A   Unknown
11:55 AM 64.4 °F - 39.2 °F 40% 30.27 in 10.0 mi SW 3.5 mph - N/A   Unknown
12:15 PM 64.4 °F - 35.6 °F 34% 30.26 in 10.0 mi South 4.6 mph - N/A   Unknown
12:35 PM 66.2 °F - 35.6 °F 32% 30.25 in 10.0 mi WSW 6.9 mph - N/A   Unknown
12:55 PM 66.2 °F - 37.4 °F 35% 30.24 in 10.0 mi SSW 6.9 mph - N/A   Unknown
1:15 PM 66.2 °F - 37.4 °F 35% 30.24 in 10.0 mi SW 6.9 mph - N/A   Unknown
1:35 PM 66.2 °F - 37.4 °F 35% 30.23 in 10.0 mi WSW 3.5 mph - N/A   Unknown
1:55 PM 66.2 °F - 37.4 °F 35% 30.22 in 10.0 mi WSW 5.8 mph - N/A   Unknown
2:35 PM 66.2 °F - 37.4 °F 35% 30.21 in 10.0 mi West 4.6 mph - N/A   Unknown
2:55 PM 66.2 °F - 35.6 °F 32% 30.21 in 7.0 mi West 4.6 mph - N/A   Unknown
3:15 PM 68.0 °F - 35.6 °F 30% 30.21 in 5.0 mi WSW 3.5 mph - N/A   Unknown
3:35 PM 68.0 °F - 35.6 °F 30% 30.20 in 7.0 mi West 3.5 mph - N/A   Unknown
3:55 PM 66.2 °F - 35.6 °F 32% 30.20 in 5.0 mi SSW 5.8 mph - N/A   Unknown
4:15 PM 66.2 °F - 37.4 °F 35% 30.20 in 5.0 mi SSW 4.6 mph - N/A   Unknown
4:35 PM 64.4 °F - 35.6 °F 34% 30.19 in 5.0 mi SSW 6.9 mph - N/A   Unknown
4:55 PM 62.6 °F - 37.4 °F 39% 30.19 in 5.0 mi South 5.8 mph - N/A   Unknown
5:15 PM 62.6 °F - 35.6 °F 37% 30.19 in 7.0 mi South 5.8 mph - N/A   Unknown
5:35 PM 60.8 °F - 35.6 °F 39% 30.19 in 10.0 mi South 3.5 mph - N/A   Unknown
5:55 PM 57.2 °F - 35.6 °F 44% 30.20 in 7.0 mi South 3.5 mph - N/A   Unknown
6:15 PM 57.2 °F - 35.6 °F 44% 30.20 in 7.0 mi South 4.6 mph - N/A   Unknown
6:35 PM 55.4 °F - 35.6 °F 47% 30.21 in 7.0 mi Calm Calm - N/A   Unknown
6:55 PM 55.4 °F - 35.6 °F 47% 30.21 in 10.0 mi South 4.6 mph - N/A   Unknown
7:15 PM 57.2 °F - 35.6 °F 44% 30.21 in 10.0 mi Calm Calm - N/A   Unknown
7:35 PM 55.4 °F - 37.4 °F 51% 30.21 in 10.0 mi Calm Calm - N/A   Unknown
7:55 PM 55.4 °F - 37.4 °F 51% 30.21 in 10.0 mi SSE 4.6 mph - N/A   Unknown
8:15 PM 57.2 °F - 37.4 °F 48% 30.20 in 10.0 mi ESE 3.5 mph - N/A   Unknown
8:35 PM 55.4 °F - 39.2 °F 54% 30.19 in 10.0 mi SSE 3.5 mph - N/A   Unknown
8:55 PM 55.4 °F - 39.2 °F 54% 30.19 in 10.0 mi SSE 4.6 mph - N/A   Unknown
9:15 PM 55.4 °F - 39.2 °F 54% 30.18 in 10.0 mi SSE 6.9 mph - N/A   Unknown
9:35 PM 55.4 °F - 39.2 °F 54% 30.18 in 10.0 mi South 8.1 mph - N/A   Unknown
10:15 PM 53.6 °F - 39.2 °F 58% 30.19 in 7.0 mi SSW 5.8 mph - N/A   Unknown
10:35 PM 53.6 °F - 41.0 °F 62% 30.18 in 10.0 mi South 4.6 mph - N/A   Unknown
10:55 PM 53.6 °F - 41.0 °F 62% 30.17 in 10.0 mi South 4.6 mph - N/A   Unknown
11:15 PM 51.8 °F - 39.2 °F 62% 30.17 in 10.0 mi SSW 4.6 mph - N/A   Unknown
11:35 PM 53.6 °F - 39.2 °F 58% 30.16 in 10.0 mi South 4.6 mph - N/A   Unknown
11:55 PM 53.6 °F - 39.2 °F 58% 30.16 in 7.0 mi South 4.6 mph - N/A   Unknown